Tracking 21076 objects as of 7-Aug-2020
HD Live streaming from Space Station
objects crossing your sky now

ARIANE 44LP DEB

Track ARIANE 44LP DEB now!


NORAD ID: 25540
Int'l Code: 1988-109G
Perigee: 339.8 km
Apogee: 28,743.8 km
Inclination: 7.0 °
Period: 501.6 minutes
Semi major axis: 20912 km
RCS: 0.8784 m2 (medium)
Launch date: December 11, 1988
Source: France (FR)
Launch site: FRENCH GUIANA (FRGUI)

Note: This is SATELLITE DEBRIS
aabbcc
Your satellite tracking list
Your tracking list is empty




NASA's NSSDC Master Catalog

Two Line Element Set (TLE):
1 25540U 88109G   20219.80252967  .00004179  00000-0  34342-2 0  9994
2 25540   7.0052  48.7718 6791065  94.3710 339.6561  2.87067576211459
Source of the keplerian elements: AFSPC